KD8BMB Weather Reports


time (UTC)temp
C
wind
direction
speed
KPH
gust
KPH
rain 1hr
cm
rain 24hr
cm
rain mn
cm
humidity
%
barometer
mb
20260509043230 8 265 0.0 0.0 0.00 0.00 0.00 65 1006.0
20260509042726 8 265 0.0 0.0 0.00 0.00 0.00 63 1006.0
20260509042223 8 265 0.0 0.0 0.00 0.00 0.00 61 1006.1
20260509041720 8 265 0.0 0.0 0.00 0.00 0.00 61 1005.8
20260509041217 9 263 0.0 0.0 0.00 0.00 0.00 62 1005.9
20260509040716 9 243 0.0 0.0 0.00 0.00 0.00 60 1006.2
20260509040212 9 244 0.0 0.0 0.00 0.00 0.00 61 1006.2
20260509035708 9 257 0.0 0.0 0.00 0.00 0.00 60 1006.3
20260509035205 9 258 0.0 0.0 0.00 0.00 0.00 61 1006.3
20260509034703 9 280 0.0 0.0 0.00 0.00 0.00 62 1006.1
20260509034200 9 289 0.0 0.0 0.00 0.00 0.00 59 1006.3
20260509033657 10 323 0.0 0.0 0.00 0.00 0.00 61 1006.4
20260509033154 10 316 0.0 0.0 0.00 0.00 0.00 61 1006.3
20260509032651 10 281 0.0 0.0 0.00 0.00 0.00 62 1006.3
20260509032148 9 292 0.0 0.0 0.00 0.00 0.00 63 1006.5
20260509031646 9 292 0.0 0.0 0.00 0.00 0.00 62 1006.8
20260509031143 9 292 0.0 0.0 0.00 0.00 0.00 62 1006.7
20260509030641 9 293 0.0 0.0 0.00 0.00 0.00 60 1006.5
20260509030138 9 293 0.0 0.0 0.00 0.00 0.00 60 1006.7
20260509025634 9 293 0.0 0.0 0.00 0.00 0.00 59 1006.7
20260509025130 9 292 0.0 0.0 0.00 0.00 0.00 61 1006.8
20260509024625 8 292 0.0 0.0 0.00 0.00 0.00 63 1006.8
20260509024121 8 315 0.0 0.0 0.00 0.00 0.00 62 1006.8
20260509023620 8 322 0.0 0.0 0.00 0.00 0.00 61 1006.7
20260509023116 8 322 0.0 0.0 0.00 0.00 0.00 60 1006.9
20260509022613 8 322 0.0 0.0 0.00 0.00 0.00 60 1006.7
20260509022111 9 322 0.0 0.0 0.00 0.00 0.00 59 1006.9
20260509021607 9 267 0.0 0.0 0.00 0.00 0.00 59 1007.0
20260509021104 9 268 0.0 0.0 0.00 0.00 0.00 58 1006.7
20260509020603 9 268 0.0 0.0 0.00 0.00 0.00 58 1006.9
20260509020059 9 268 0.0 0.0 0.00 0.00 0.00 58 1006.8
20260509015558 10 268 0.0 0.0 0.00 0.00 0.00 57 1006.9
20260509015055 10 268 0.0 0.0 0.00 0.00 0.00 56 1006.8
20260509014552 10 268 0.0 0.0 0.00 0.00 0.00 55 1006.8
20260509014048 10 268 0.0 0.0 0.00 0.00 0.00 54 1006.9
20260509013545 10 267 0.0 0.0 0.00 0.00 0.00 52 1006.6
20260509013040 11 268 0.0 0.0 0.00 0.00 0.00 51 1006.7
20260509012538 11 290 0.0 0.0 0.00 0.00 0.00 50 1006.6
20260509012034 11 292 0.0 0.0 0.00 0.00 0.00 50 1006.2
20260509011532 11 292 0.0 0.0 0.00 0.00 0.00 49 1006.3
20260509011029 11 292 0.0 0.0 0.00 0.00 0.00 47 1006.4
20260509010527 12 292 0.0 0.0 0.00 0.00 0.00 46 1006.3
20260509010024 12 289 0.0 0.0 0.00 0.00 0.00 44 1006.2
20260509005521 13 293 0.0 0.0 0.00 0.00 0.00 42 1006.2
20260509005021 13 292 0.0 0.0 0.00 0.00 0.00 40 1006.3
20260509004519 13 292 0.0 0.0 0.00 0.00 0.00 39 1006.1
20260509004015 13 292 0.0 0.0 0.00 0.00 0.00 38 1006.0
20260509003514 14 292 0.0 0.0 0.00 0.00 0.00 40 1006.1
20260509003010 14 316 0.0 0.0 0.00 0.00 0.00 37 1006.0
20260509002508 15 273 0.0 0.0 0.00 0.00 0.00 36 1006.2
20260509002005 15 276 0.0 0.0 0.00 0.00 0.00 36 1006.1
20260509001502 15 294 0.0 0.0 0.00 0.00 0.00 34 1006.0
20260509000959 15 310 0.0 0.0 0.00 0.00 0.00 33 1005.9
20260509000457 15 292 0.0 0.0 0.00 0.00 0.00 35 1006.0
20260508235952 15 266 0.0 0.0 0.00 0.00 0.00 33 1006.0
20260508235450 16 298 0.0 0.0 0.00 0.00 0.00 33 1006.0
20260508234947 16 282 0.0 0.0 0.00 0.00 0.00 31 1005.8
20260508234444 16 271 4.8 8.0 0.00 0.00 0.00 31 1005.8
20260508233941 16 259 3.2 3.2 0.00 0.00 0.00 31 1005.9
20260508233441 16 250 0.0 1.6 0.00 0.00 0.00 30 1006.0
20260508232937 17 281 1.6 1.6 0.00 0.00 0.00 31 1005.6
20260508232434 17 304 0.0 0.0 0.00 0.00 0.00 29 1005.8
20260508231931 17 303 1.6 3.2 0.00 0.00 0.00 30 1005.8
20260508231428 17 309 0.0 0.0 0.00 0.00 0.00 30 1005.8
20260508230925 17 279 6.4 8.0 0.00 0.00 0.00 29 1005.8
20260508230422 17 225 4.8 4.8 0.00 0.00 0.00 29 1006.0
20260508225919 17 282 4.8 9.7 0.00 0.00 0.00 30 1006.1
20260508225415 17 353 1.6 1.6 0.00 0.00 0.00 29 1006.2
20260508224913 17 262 6.4 9.7 0.00 0.00 0.00 28 1006.2
20260508224411 18 238 4.8 8.0 0.00 0.00 0.00 30 1006.0
20260508223908 18 266 0.0 0.0 0.00 0.00 0.00 29 1006.2
20260508223406 18 325 0.0 0.0 0.00 0.00 0.00 29 1006.2
20260508222903 18 268 1.6 3.2 0.00 0.00 0.00 30 1006.1
20260508222400 17 225 1.6 1.6 0.00 0.00 0.00 31 1006.3
20260508221856 17 262 0.0 0.0 0.00 0.00 0.00 31 1006.2
20260508221352 17 242 0.0 0.0 0.00 0.00 0.00 30 1006.2
20260508220849 17 214 4.8 8.0 0.00 0.00 0.00 31 1006.6
20260508220345 17 215 6.4 9.7 0.00 0.00 0.00 30 1006.4
20260508215841 17 224 8.0 11.3 0.00 0.00 0.00 30 1006.6
20260508215338 17 246 3.2 3.2 0.00 0.00 0.00 31 1006.5
20260508214835 18 291 3.2 4.8 0.00 0.00 0.00 33 1006.6
20260508214332 18 311 3.2 4.8 0.00 0.00 0.00 30 1006.5
20260508213828 17 290 0.0 1.6 0.00 0.00 0.00 30 1006.6
20260508213325 17 66 1.6 1.6 0.00 0.00 0.00 32 1006.6
20260508212822 17 220 0.0 1.6 0.00 0.00 0.00 30 1006.8
20260508212318 17 232 4.8 8.0 0.00 0.00 0.00 30 1006.7
20260508211814 17 254 3.2 4.8 0.00 0.00 0.00 30 1006.8
20260508211309 17 279 11.3 16.1 0.00 0.00 0.00 30 1006.8
20260508210808 17 279 8.0 17.7 0.00 0.00 0.00 31 1006.8
20260508210304 17 273 4.8 8.0 0.00 0.00 0.00 30 1006.6
20260508205801 17 293 1.6 3.2 0.00 0.00 0.00 31 1006.9
20260508205257 17 273 3.2 8.0 0.00 0.00 0.00 30 1006.9
20260508204753 17 174 4.8 9.7 0.00 0.00 0.00 29 1007.0
20260508204250 17 251 11.3 20.9 0.00 0.00 0.00 29 1007.1
20260508203746 17 297 4.8 4.8 0.00 0.00 0.00 30 1006.9
20260508203243 18 294 6.4 8.0 0.00 0.00 0.00 32 1007.3
20260508202738 17 300 3.2 3.2 0.00 0.00 0.00 33 1007.4
20260508202236 17 271 6.4 12.9 0.00 0.00 0.00 32 1007.5
20260508201733 17 210 4.8 4.8 0.00 0.00 0.00 32 1007.7
20260508201229 17 216 3.2 8.0 0.00 0.00 0.00 34 1007.5
20260508200726 17 264 0.0 0.0 0.00 0.00 0.00 32 1007.7
20260508200222 16 213 1.6 1.6 0.00 0.00 0.00 33 1007.9
20260508195719 16 322 6.4 9.7 0.00 0.00 0.00 33 1007.9
20260508195215 17 247 3.2 4.8 0.00 0.00 0.00 32 1008.0
20260508194712 17 313 11.3 14.5 0.00 0.00 0.00 31 1008.0
20260508194209 16 204 0.0 0.0 0.00 0.00 0.00 33 1008.1
20260508193706 16 336 1.6 4.8 0.00 0.00 0.00 33 1008.2
20260508193203 17 203 4.8 8.0 0.00 0.00 0.00 33 1008.4
20260508192659 16 222 1.6 1.6 0.00 0.00 0.00 34 1008.4
20260508192156 16 269 6.4 8.0 0.00 0.00 0.00 34 1008.4
20260508191654 16 248 4.8 11.3 0.00 0.00 0.00 33 1008.4
20260508191150 17 308 4.8 8.0 0.00 0.00 0.00 33 1008.2
20260508190648 16 284 6.4 9.7 0.00 0.00 0.00 32 1008.8
20260508190144 17 280 1.6 1.6 0.00 0.00 0.00 34 1008.7
20260508185641 16 286 1.6 3.2 0.00 0.00 0.00 33 1008.7
20260508185138 17 221 6.4 11.3 0.00 0.00 0.00 34 1008.8
20260508184635 16 281 9.7 11.3 0.00 0.00 0.00 32 1009.0
20260508184132 16 121 0.0 0.0 0.00 0.00 0.00 35 1008.9
20260508183629 16 284 0.0 1.6 0.00 0.00 0.00 33 1008.9
20260508183125 16 327 0.0 0.0 0.00 0.00 0.00 33 1009.2
20260508182621 16 232 0.0 3.2 0.00 0.00 0.00 35 1009.3
20260508182118 15 227 3.2 4.8 0.00 0.00 0.00 36 1009.2
20260508181613 16 279 9.7 14.5 0.00 0.00 0.00 31 1009.2
20260508181111 16 224 8.0 12.9 0.00 0.00 0.00 32 1009.2
20260508180608 17 292 0.0 1.6 0.00 0.00 0.00 31 1009.2
20260508180104 16 172 0.0 0.0 0.00 0.00 0.00 33 1009.5
20260508175601 16 266 0.0 0.0 0.00 0.00 0.00 33 1009.4
20260508175058 16 273 8.0 14.5 0.00 0.00 0.00 32 1009.7
20260508174555 15 247 3.2 4.8 0.00 0.00 0.00 33 1009.8
20260508174052 16 288 8.0 9.7 0.00 0.00 0.00 32 1009.7
20260508173549 16 262 0.0 0.0 0.00 0.00 0.00 31 1009.8
20260508173045 15 283 4.8 4.8 0.00 0.00 0.00 32 1010.0
20260508172543 16 218 8.0 9.7 0.00 0.00 0.00 30 1010.3
20260508172039 15 201 0.0 1.6 0.00 0.00 0.00 33 1010.1
20260508171536 15 214 0.0 1.6 0.00 0.00 0.00 33 1010.3
20260508171032 16 217 9.7 14.5 0.00 0.00 0.00 33 1010.1
20260508170529 15 36 0.0 1.6 0.00 0.00 0.00 32 1010.3
20260508170027 15 275 1.6 3.2 0.00 0.00 0.00 34 1010.4
20260508165524 15 320 0.0 1.6 0.00 0.00 0.00 32 1010.4
20260508165020 14 271 1.6 3.2 0.00 0.00 0.00 32 1010.5
20260508164517 14 219 6.4 11.3 0.00 0.00 0.00 32 1010.6
20260508164014 14 289 4.8 8.0 0.00 0.00 0.00 35 1010.6
20260508163511 14 333 3.2 8.0 0.00 0.00 0.00 34 1010.7
20260508163008 15 209 0.0 0.0 0.00 0.00 0.00 36 1010.9
20260508162505 14 49 0.0 0.0 0.00 0.00 0.00 34 1010.8
20260508162002 14 253 1.6 3.2 0.00 0.00 0.00 33 1010.9
20260508161458 13 248 1.6 3.2 0.00 0.00 0.00 36 1010.9
20260508160956 14 199 3.2 4.8 0.00 0.00 0.00 38 1011.0
20260508160454 14 288 12.9 12.9 0.00 0.00 0.00 35 1011.0
20260508155950 15 296 8.0 9.7 0.00 0.00 0.00 37 1010.8
20260508155448 13 289 0.0 0.0 0.00 0.00 0.00 40 1010.9
20260508154944 14 276 6.4 8.0 0.00 0.00 0.00 37 1011.0
20260508154442 14 287 1.6 3.2 0.00 0.00 0.00 40 1011.2
20260508153938 13 308 0.0 0.0 0.00 0.00 0.00 40 1011.3
20260508153436 15 290 1.6 1.6 0.00 0.00 0.00 39 1011.2
20260508152932 13 80 1.6 3.2 0.00 0.00 0.00 40 1011.1
20260508152428 13 282 3.2 8.0 0.00 0.00 0.00 43 1011.1
20260508151925 13 263 0.0 3.2 0.00 0.00 0.00 43 1011.3
20260508151422 13 223 0.0 0.0 0.00 0.00 0.00 44 1011.5
20260508150918 13 240 3.2 4.8 0.00 0.00 0.00 43 1011.3
20260508150415 12 260 1.6 1.6 0.00 0.00 0.00 42 1011.4
20260508145911 13 279 3.2 3.2 0.00 0.00 0.00 40 1011.6
20260508145407 12 292 9.7 12.9 0.00 0.00 0.00 42 1011.4
20260508144904 13 245 0.0 1.6 0.00 0.00 0.00 45 1011.6
20260508144402 13 309 3.2 3.2 0.00 0.00 0.00 44 1011.8
20260508143859 13 209 1.6 1.6 0.00 0.00 0.00 46 1011.4
20260508143357 13 120 0.0 0.0 0.00 0.00 0.00 44 1011.4
20260508142853 12 334 8.0 11.3 0.00 0.00 0.00 48 1011.8
20260508142350 12 321 3.2 3.2 0.00 0.00 0.00 50 1011.7
20260508141846 12 80 0.0 0.0 0.00 0.00 0.00 50 1011.6
20260508141343 11 212 0.0 0.0 0.00 0.00 0.00 52 1011.7
20260508140841 11 299 4.8 4.8 0.00 0.00 0.00 52 1011.7
20260508140338 12 237 1.6 3.2 0.00 0.00 0.00 53 1011.7
20260508135833 11 223 0.0 0.0 0.00 0.00 0.00 52 1011.9
20260508135330 11 267 1.6 3.2 0.00 0.00 0.00 57 1012.0
20260508134826 11 251 1.6 1.6 0.00 0.00 0.00 56 1011.9
20260508134323 12 275 0.0 0.0 0.00 0.00 0.00 58 1012.0
20260508133819 10 312 0.0 0.0 0.00 0.00 0.00 58 1011.7
20260508133318 10 266 1.6 3.2 0.00 0.00 0.00 59 1012.2
20260508132814 10 252 0.0 1.6 0.00 0.00 0.00 57 1012.0
20260508132312 10 260 3.2 4.8 0.00 0.00 0.00 57 1012.2
20260508131808 11 223 3.2 3.2 0.00 0.00 0.00 58 1012.2
20260508131303 11 234 0.0 0.0 0.00 0.00 0.00 60 1012.2
20260508130755 10 287 0.0 0.0 0.00 0.00 0.00 63 1012.0
20260508130252 10 174 0.0 0.0 0.00 0.00 0.00 61 1012.1
20260508125748 10 305 0.0 0.0 0.00 0.00 0.00 65 1012.1
20260508125244 10 265 0.0 0.0 0.00 0.00 0.00 67 1012.1
20260508124743 9 225 0.0 0.0 0.00 0.00 0.00 67 1011.9
20260508124239 9 212 0.0 0.0 0.00 0.00 0.00 70 1012.0
20260508123738 8 293 0.0 0.0 0.00 0.00 0.00 75 1011.8
20260508123235 8 216 0.0 0.0 0.00 0.00 0.00 76 1012.0
20260508122731 7 289 0.0 0.0 0.00 0.00 0.00 82 1011.9
20260508122228 6 272 0.0 0.0 0.00 0.00 0.00 90 1011.9
20260508121726 6 262 0.0 0.0 0.00 0.00 0.00 95 1011.9
20260508121224 5 213 0.0 0.0 0.00 0.00 0.00 99 1011.5
20260508120721 5 292 0.0 0.0 0.00 0.00 0.00 99 1011.6
20260508120219 5 292 0.0 0.0 0.00 0.00 0.00 99 1011.6
20260508115716 4 222 0.0 0.0 0.00 0.00 0.00 99 1011.7
20260508115214 4 274 0.0 0.0 0.00 0.00 0.00 99 1011.6
20260508114710 3 313 0.0 0.0 0.00 0.00 0.00 99 1011.4
20260508114207 3 293 0.0 0.0 0.00 0.00 0.00 99 1011.6
20260508113703 3 292 0.0 0.0 0.00 0.00 0.00 99 1011.4
20260508113202 3 300 0.0 0.0 0.00 0.00 0.00 99 1011.3
20260508112658 3 320 0.0 0.0 0.00 0.00 0.00 99 1011.3
20260508112155 3 325 0.0 0.0 0.00 0.00 0.00 99 1011.2
20260508111651 2 322 0.0 0.0 0.00 0.00 0.00 99 1011.4
20260508111149 2 347 0.0 0.0 0.00 0.00 0.00 99 1011.4
20260508110646 1 315 0.0 0.0 0.00 0.00 0.00 99 1011.4
20260508110143 1 315 0.0 0.0 0.00 0.00 0.00 99 1011.2
20260508105638 1 315 0.0 0.0 0.00 0.00 0.00 99 1011.3
20260508105135 1 315 0.0 0.0 0.00 0.00 0.00 99 1011.3
20260508104633 1 312 0.0 0.0 0.00 0.00 0.00 99 1011.6
20260508104129 0 312 0.0 0.0 0.00 0.00 0.00 99 1011.4
20260508103626 1 311 0.0 0.0 0.00 0.00 0.00 99 1011.4
20260508103123 1 297 0.0 0.0 0.00 0.00 0.00 99 1011.4
20260508102621 1 294 0.0 0.0 0.00 0.00 0.00 99 1011.5
20260508102119 1 294 0.0 0.0 0.00 0.00 0.00 99 1011.6
20260508101616 1 294 0.0 0.0 0.00 0.00 0.00 99 1011.4
20260508101113 1 291 0.0 0.0 0.00 0.00 0.00 99 1011.5
20260508100610 1 289 0.0 0.0 0.00 0.00 0.00 99 1011.4
20260508100108 1 299 0.0 0.0 0.00 0.00 0.00 99 1011.3
20260508095604 1 311 0.0 0.0 0.00 0.00 0.00 99 1011.4
20260508095101 1 311 0.0 0.0 0.00 0.00 0.00 99 1011.4
20260508094559 1 336 0.0 0.0 0.00 0.00 0.00 99 1011.4
20260508094055 1 311 0.0 0.0 0.00 0.00 0.00 99 1011.5
20260508093553 1 320 0.0 0.0 0.00 0.00 0.00 99 1011.4
20260508093050 2 324 0.0 0.0 0.00 0.00 0.00 99 1011.6
20260508092547 2 296 0.0 0.0 0.00 0.00 0.00 99 1011.6
20260508092046 2 295 0.0 0.0 0.00 0.00 0.00 99 1011.5
20260508091542 2 311 0.0 0.0 0.00 0.00 0.00 99 1011.7
20260508091039 2 314 0.0 0.0 0.00 0.00 0.00 99 1011.6
20260508090538 2 305 0.0 0.0 0.00 0.00 0.00 99 1011.7
20260508090034 2 306 0.0 0.0 0.00 0.00 0.00 99 1011.5
20260508085530 2 305 0.0 0.0 0.00 0.00 0.00 99 1011.7
20260508085028 2 291 0.0 0.0 0.00 0.00 0.00 99 1011.7
20260508084525 3 291 0.0 0.0 0.00 0.00 0.00 99 1011.7
20260508084022 3 286 0.0 0.0 0.00 0.00 0.00 99 1011.6
20260508083519 3 283 0.0 0.0 0.00 0.00 0.00 99 1011.5
20260508083015 3 306 0.0 0.0 0.00 0.00 0.00 99 1011.7
20260508082511 3 325 0.0 0.0 0.00 0.00 0.00 99 1011.6
20260508082009 3 332 0.0 0.0 0.00 0.00 0.00 99 1011.8
20260508081506 3 285 0.0 0.0 0.00 0.00 0.00 99 1011.6
20260508081002 3 285 0.0 0.0 0.00 0.00 0.00 99 1011.8
20260508080500 3 292 0.0 0.0 0.00 0.00 0.00 99 1011.6
20260508075957 3 307 0.0 0.0 0.00 0.00 0.00 99 1011.8
20260508075454 3 291 0.0 0.0 0.00 0.00 0.00 99 1011.7
20260508074951 3 302 0.0 0.0 0.00 0.00 0.00 99 1011.7
20260508074449 4 301 0.0 0.0 0.00 0.00 0.00 99 1011.7
20260508073945 4 316 0.0 0.0 0.00 0.00 0.00 98 1011.6
20260508073443 4 298 0.0 0.0 0.00 0.00 0.00 98 1011.6
20260508072940 5 283 0.0 0.0 0.00 0.00 0.00 98 1011.5
20260508072436 5 282 0.0 0.0 0.00 0.00 0.00 97 1011.5
20260508071934 5 288 0.0 0.0 0.00 0.00 0.00 97 1011.5
20260508071431 5 309 0.0 0.0 0.00 0.00 0.00 96 1011.5
20260508070929 5 310 0.0 0.0 0.00 0.00 0.00 96 1011.4
20260508070427 5 309 0.0 0.0 0.00 0.00 0.00 95 1011.5
20260508065924 5 284 0.0 0.0 0.00 0.00 0.00 95 1011.6
20260508065422 5 262 0.0 0.0 0.00 0.00 0.00 95 1011.7
20260508064920 5 235 0.0 0.0 0.00 0.00 0.00 95 1011.6
20260508064417 5 318 0.0 0.0 0.00 0.00 0.00 94 1011.6
20260508063915 5 313 0.0 0.0 0.00 0.00 0.00 94 1011.5
20260508063412 5 289 0.0 0.0 0.00 0.00 0.00 94 1011.3
20260508062909 5 259 0.0 0.0 0.00 0.00 0.00 93 1011.3
20260508062407 5 244 0.0 0.0 0.00 0.00 0.00 93 1011.8
20260508061904 5 279 0.0 0.0 0.00 0.00 0.00 93 1011.5
20260508061401 5 258 0.0 0.0 0.00 0.00 0.00 93 1011.9
20260508060857 5 284 0.0 0.0 0.00 0.00 0.00 93 1011.7
20260508060355 6 281 0.0 0.0 0.00 0.00 0.00 94 1011.7
20260508055850 6 281 0.0 0.0 0.00 0.00 0.00 93 1011.8
20260508055348 6 251 0.0 0.0 0.00 0.00 0.00 92 1012.0
20260508054844 6 268 0.0 0.0 0.00 0.00 0.00 90 1012.2
20260508054342 6 279 0.0 0.0 0.00 0.00 0.00 88 1011.9
20260508053838 6 84 0.0 1.6 0.00 0.00 0.00 87 1011.7
20260508053336 6 80 0.0 0.0 0.00 0.00 0.00 89 1011.9
20260508052833 6 325 0.0 0.0 0.00 0.00 0.00 91 1011.8
20260508052330 6 320 0.0 0.0 0.00 0.00 0.00 91 1011.9
20260508051826 6 331 0.0 0.0 0.00 0.00 0.00 91 1011.7
20260508051322 6 87 0.0 0.0 0.00 0.00 0.00 92 1011.9
20260508050818 6 329 0.0 0.0 0.00 0.00 0.00 92 1012.0
20260508050316 6 328 0.0 0.0 0.00 0.00 0.00 91 1011.7
20260508045811 6 19 0.0 0.0 0.00 0.00 0.00 91 1011.7
20260508045309 6 346 0.0 0.0 0.00 0.00 0.00 91 1011.9
20260508044807 6 49 0.0 0.0 0.00 0.00 0.00 92 1011.9
20260508044303 6 280 0.0 0.0 0.00 0.00 0.00 91 1012.0
20260508043759 6 281 0.0 0.0 0.00 0.00 0.00 90 1011.9